Rechercher aéroport 
image banner adimage banner adimage banner ad
image banner ad

CN42 - Double Creek Ranch

Situé à Manton, United States

ICAO - CN42, IATA -

Données fournies par Airmate  

Information générale

Coordonnées: N40°26'45" W121°52'56"
Élévation : 2030 feet MSL.
Variation magnétique : 17° East
Voir autres Aéroports à California

Données opérationnelles

Special qualification required
Heure actuelle UTC:
Heure actuelle locale:
Météo à : KRDD - Redding Muni ( 35 km )
METAR: KRDD 210153Z AUTO 35010KT 10SM FU CLR 32/M01 A2993 RMK AO2 SLP130 T03221006
TAF: KRDD 202320Z 2100/2124 35017G26KT P6SM SKC FM210200 35007G14KT P6SM SKC FM210500 36005KT P6SM SKC
Voir NOTAMs / SUP AIP / TFR affectant cet aéroport [VIEW]
Fréquences de communication: [VIEW]

Pistes:

Identifiant RWYQFULongueur (ft)Largeur (ft)SurfaceLDA (ft)
06340080OTHER
24340080OTHER

Coordonnées de l'aéroport

Adresse: Manton United States

Vue satellite de CN42